Weather History for KEPH - May, 2014

Change the Weather History Date:

Wednesday, May 7, 2014

  Actual Average Record
Temperature  
Mean Temperature 60 °F 56 °F  
Max Temperature 72 °F 70 °F 96 °F (1987)
Min Temperature 48 °F 44 °F 30 °F (2003)
Degree Days  
Heating Degree Days 5 9  
Month to date heating degree days 38 70  
Since 1 July heating degree days 5661 5767  
Cooling Degree Days 0 1  
Month to date cooling degree days 2 4  
Year to date cooling degree days 2 6  
Growing Degree Days 10 (Base 50)    
Moisture  
Dew Point 28 °F    
Average Humidity 34    
Maximum Humidity 52    
Minimum Humidity 15    
Precipitation  
Precipitation 0.00 in 0.02 in 0.43 in (1951)
Month to date precipitation T 0.11  
Year to date precipitation 2.71 2.92  
Sea Level Pressure  
Sea Level Pressure 29.86 in    
Wind  
Wind Speed 10 mph (NW)    
Max Wind Speed 21 mph    
Max Gust Speed 26 mph    
Visibility 10 miles    
Events      
T = Trace of Precipitation, MM = Missing Value Source: NWS Daily Summary

Daily Weather History Graph

Daily Weather History Graph

Search for Another Location

Airport or City:

Trip Planner

Search our weather history database for the weather conditions in past years. The results will help you decide how hot, cold, wet, or windy it might be!

Date:

Astronomy

May. 07, 2014 Rise Set
Actual Time 5:32 AM PDT 8:17 PM PDT
Civil Twilight 4:57 AM PDT 8:52 PM PDT
Nautical Twilight 4:12 AM PDT 9:37 PM PDT
Astronomical Twilight 3:20 AM PDT 10:30 PM PDT
Moon 12:59 PM PDT (5/7) 2:03 AM PDT (5/7)
Length of Visible Light 15h 55m
Length of Day
14h 45m
First Quarter, 56% of the Moon is Illuminated
May 7
First Quarter
May 14
Full
May 21
Last Quarter
May 28
New
Jun 5
First Quarter

Hourly Weather History & Observations

Time (PDT) Temp. Dew Point Humidity Pressure Visibility Wind Dir Wind Speed Gust Speed Precip Events Conditions
12:53 AM 55.0 °F 37.0 °F 51% 29.89 in 10.0 mi North 11.5 mph - N/A   Partly Cloudy
2:53 AM 53.1 °F 34.0 °F 48% 29.88 in 10.0 mi NW 15.0 mph - N/A   Clear
3:53 AM 50.0 °F 34.0 °F 54% 29.90 in 10.0 mi NW 8.1 mph - N/A   Clear
5:53 AM 51.1 °F 33.1 °F 50% 29.90 in 10.0 mi NNW 13.8 mph - N/A   Clear
6:53 AM 53.1 °F 33.1 °F 47% 29.91 in 10.0 mi NNW 6.9 mph - N/A   Clear
7:53 AM 57.0 °F 32.0 °F 39% 29.92 in 10.0 mi NNW 15.0 mph - N/A   Clear
8:53 AM 60.1 °F 32.0 °F 35% 29.92 in 10.0 mi NNW 12.7 mph - N/A   Clear
9:53 AM 64.0 °F 25.0 °F 23% 29.92 in 10.0 mi North 12.7 mph 23.0 mph N/A   Clear
11:53 AM 66.9 °F 19.0 °F 16% 29.90 in 10.0 mi North 12.7 mph 19.6 mph N/A   Clear
12:53 PM 69.1 °F 21.0 °F 16% 29.88 in 10.0 mi NNW 12.7 mph - N/A   Clear
1:53 PM 70.0 °F 19.9 °F 15% 29.86 in 10.0 mi North 9.2 mph 17.3 mph N/A   Clear
2:53 PM 68.0 °F 19.0 °F 15% 29.85 in 10.0 mi East 8.1 mph - N/A   Mostly Cloudy
3:53 PM 70.0 °F 21.9 °F 16% 29.83 in 10.0 mi Variable 4.6 mph 17.3 mph N/A   Mostly Cloudy
4:53 PM 71.1 °F 21.9 °F 16% 29.81 in 10.0 mi SE 9.2 mph 18.4 mph N/A   Scattered Clouds
5:53 PM 69.1 °F 24.1 °F 18% 29.81 in 10.0 mi South 8.1 mph - N/A   Clear
6:53 PM 69.1 °F 25.0 °F 19% 29.80 in 10.0 mi SSW 12.7 mph - N/A   Scattered Clouds
7:53 PM 64.0 °F 28.0 °F 26% 29.80 in 10.0 mi South 8.1 mph - N/A   Clear
8:53 PM 55.0 °F 30.9 °F 40% 29.81 in 10.0 mi South 3.5 mph - N/A   Scattered Clouds
9:53 PM 55.9 °F 32.0 °F 40% 29.81 in 10.0 mi South 8.1 mph - N/A   Mostly Cloudy
10:53 PM 55.9 °F 33.1 °F 42% 29.81 in 10.0 mi WSW 10.4 mph - N/A   Mostly Cloudy
11:53 PM 50.0 °F 33.1 °F 52% 29.81 in 10.0 mi SW 6.9 mph - N/A   Clear